Printer-friendly version

IAU Minor Planet Center

Minor Planet Center

MPEC 2008-G63 : 2008 FN6

The following Minor Planet Electronic Circular may be linked-to from your own Web pages, but must not otherwise be redistributed electronically.


Read MPEC 2008-G62 Read MPEC 2008-G64


M.P.E.C. 2008-G63                                Issued 2008 Apr. 10, 16:50 UT

     The Minor Planet Electronic Circulars contain information on unusual
         minor planets and routine data on comets.  They are published
   on behalf of Commission 20 of the International Astronomical Union by the
          Minor Planet Center, Smithsonian Astrophysical Observatory,
                          Cambridge, MA 02138, U.S.A.

             Prepared using the Tamkin Foundation Computer Network

                              MPC@CFA.HARVARD.EDU
          URL http://www.cfa.harvard.edu/iau/mpc.html  ISSN 1523-6714

                                   2008 FN6

Additional Observations:
     K08F06N  C2008 04 07.43301 14 35 18.02 +09 14 03.1          20.3 V EG063703
     K08F06N  C2008 04 07.43844 14 35 17.70 +09 13 57.2          20.5 V EG063703
     K08F06N  C2008 04 07.44383 14 35 17.55 +09 13 52.5          20.4 V EG063703
     K08F06N  C2008 04 07.44927 14 35 17.30 +09 13 47.9          20.2 V EG063703
     K08F06N  C2008 04 07.88878614 35 08.42 +09 06 51.1          20.4 V EG063198
     K08F06N  C2008 04 07.89129614 35 08.34 +09 06 49.1          20.0 V EG063198
     K08F06N  C2008 04 07.90204414 35 07.99 +09 06 39.3          20.4 V EG063198
     K08F06N  C2008 04 07.90690314 35 07.83 +09 06 35.1          20.4 V EG063198
     K08F06N  C2008 04 07.91273614 35 07.64 +09 06 29.7          20.7 V EG063198
     K08F06N  C2008 04 07.97538 14 35 05.48 +09 05 30.0          20.1 V EG063A44
     K08F06N  C2008 04 07.98481 14 35 05.18 +09 05 21.5          20.0 V EG063A44
     K08F06N  C2008 04 07.99282 14 35 04.90 +09 05 13.7          20.0 V EG063A44

Observer details:
198 Wildberg.  Observer R. Apitzsch.  0.35-m f/4.2 reflector + CCD.
703 Catalina Sky Survey.  Observer A. Boattini.  Measurers E. C. Beshore,
    A. Boattini, G. J. Garradd, A. R. Gibbs, A. D. Grauer, R. E. Hill,
    R. A. Kowalski, S. M. Larson, R. H. McNaught.  0.68-m Schmidt + CCD.
A44 Altschwendt.  Observer W. Ries.  0.45-m f/3.6 reflector + CCD.

Orbital elements:
2008 FN6                                                 Earth MOID = 0.1052 AU
Epoch 2008 May 14.0 TT = JDT 2454600.5                  MPC
M 342.69384              (2000.0)            P               Q
n   0.47119337     Peri.  225.93056     -0.03394006     +0.98653622
a   1.6355730      Node    42.90950     -0.83661853     +0.05952370
e   0.3554176      Incl.   13.59027     -0.54673348     -0.15232601
P   2.09           H   21.4           G   0.15           U   8
Residuals in seconds of arc
080330 A44  0.1-  0.1-    080407 703  0.5-  0.6-    080407 198  0.2-  0.6+
080330 A44  0.0   0.1-    080407 703  0.0   0.3-    080407 198  0.3-  0.6+
080331 A44  0.1-  0.1-    080407 703  1.0-  0.1+    080407 A44  0.0   0.5-
080331 A44  0.0   0.3+    080407 198  0.1+  0.3-    080407 A44  0.3+  0.1-
080331 A44  0.2+  0.0     080407 198  0.1+  0.1+    080407 A44  0.3+  0.3-
080407 703  1.5+  0.3+    080407 198  0.1-  0.3+

Ephemeris:
2008 FN6                 a,e,i = 1.64, 0.36, 14                  q = 1.0543
Date    TT    R. A. (2000) Decl.     Delta      r     Elong.  Phase     V
2008 04 04    14 36.31   +09 59.7    0.312    1.280   149.9    23.1    20.5
2008 04 14    14 31.26   +07 04.4    0.245    1.233   157.5    18.1    19.7
2008 04 24    14 18.75   +01 02.3    0.188    1.189   165.8    12.0    18.9
2008 05 04    13 56.19   -10 21.3    0.144    1.149   166.8    11.6    18.2
2008 05 14    13 19.39   -28 52.2    0.118    1.115   149.8    27.2    18.2
2008 05 24    12 19.91   -50 28.1    0.116    1.087   127.3    47.8    18.7
2008 06 03    10 41.45   -66 10.3    0.133    1.067   110.0    63.3    19.4
2008 06 13    08 23.37   -72 44.1    0.160    1.056   100.4    71.0    20.0
2008 06 23    06 19.00   -73 03.1    0.189    1.055    96.5    73.2    20.5
2008 07 03    04 57.67   -71 15.1    0.218    1.063    96.2    72.1    20.7
2008 07 13    04 01.73   -69 17.3    0.243    1.079    98.4    68.7    20.9
2008 07 23    03 15.36   -67 29.4    0.266    1.104   102.5    63.9    21.0
2008 08 02    02 30.25   -65 41.4    0.285    1.136   108.1    58.1    21.0
2008 08 12    01 43.17   -63 21.5    0.304    1.174   114.9    51.5    21.1
2008 08 22    00 56.81   -59 53.8    0.325    1.217   122.4    44.6    21.1
2008 09 01    00 16.19   -55 02.5    0.352    1.263   129.6    38.0    21.2
2008 09 11    23 45.27   -48 59.9    0.389    1.312   135.2    32.8    21.3
2008 09 21    23 24.81   -42 23.8    0.439    1.362   137.8    29.7    21.6
2008 10 01    23 13.24   -35 52.3    0.504    1.413   137.0    28.9    21.9

Timothy B. Spahr             (C) Copyright 2008 MPC           M.P.E.C. 2008-G63

Read MPEC 2008-G62 Read MPEC 2008-G64


Our Web policy. Index to the CBAT/MPC/ICQ pages.


Valid HTML 4.01!